Regional Weather Roundup
Issued by NWS Wakefield, VA

Home | Current Version | Previous Version | Graphics & Text | Print | Product List | Glossary On
Versions: 1 2 3 4 5 6 7 8 9 10 11 12 13 14 15 16 17 18 19 20 21 22 23 24 25 26 27 28 29 30 31 32 33 34 35 36 37 38 39 40 41 42 43 44 45 46 47 48 49 50
000
ASUS41 KAKQ 170815
RWRAKQ

REGIONAL WEATHER ROUNDUP
NATIONAL WEATHER SERVICE WAKEFIELD VA
300 AM EST TUE JAN 17 2017

Note: "fair" indicates few or no clouds below 12,000 feet with no
significant weather and/or obstructions to visibility. * = Denotes
station may not report precipitation (e.g., rain,snow,etc.),
thunder or fog.

VAZ042-051-052>054-056-170900-
NORTHERN VIRGINIA

CITY           SKY/WX    TMP DP  RH WIND       PRES   REMARKS
WASH NATIONAL  CLOUDY    41  39  93 SE3       30.26S
DULLES         CLOUDY    40  37  89 CALM      30.24S
FORT BELVOIR   CLOUDY    39  38  95 CALM      30.24F
QUANTICO       PTCLDY    40  39  97 CALM      30.26F
FREDERICKSBRG* PTCLDY    40  40 100 CALM      30.24F
STAFFORD*      PTCLDY    39  38  97 CALM      30.29F
WARRENTON      CLOUDY    42  38  88 CALM      30.22F
CULPEPER*      CLOUDY    42  41  97 S5        30.24F
MANASSAS*      NOT AVBL
LEESBURG*      CLOUDY    43  43 100 MISG      30.24S
WINCHESTER     CLOUDY    36  34  93 CALM      30.20F
FRONT ROYAL*   CLOUDY    39  37  93 CALM      30.19S
LURAY*         PTSUNNY   45  43  93 CALM      30.19F
$$

VAZ048-049-060>072-079>083-170900-
CENTRAL AND SOUTH CENTRAL VIRGINIA

CITY           SKY/WX    TMP DP  RH WIND       PRES   REMARKS
RICHMOND       CLOUDY    41  41 100 S5        30.27R FOG
CHESTERFIELD*  CLOUDY    43  27  52 S5        30.28R
PETERSBURG*    CLOUDY    41  39  93 CALM      30.28S
HANOVER        CLOUDY    43  40  89 S3        30.28S
TAPPAHANNOCK*  CLOUDY    42  36  78 CALM      30.27S
QUINTON*       CLOUDY    42  42 100 CALM      30.27S
CHARLOTTSVILLE CLOUDY    42  40  92 CALM      30.22S
GORDONSVILLE*  CLOUDY    40  40 100 SW5       30.23S
ORANGE*          N/A     41  41 100 CALM      30.25S
LOUISA*        CLOUDY    43  43 100 S3        30.22F
BUMPASS*       FAIR      39  39 100 CALM      30.25S
FARMVILLE*     CLOUDY    40  40 100 S5        30.23F
CREWE*         CLOUDY    40  40 100 CALM      30.24F
FORT PICKETT*  CLOUDY    42  38  88 CALM      30.25F
CHASE CITY*    CLOUDY    42  40  94 CALM      30.26F
CLARKSVILLE*   CLOUDY    41  41 100 CALM      30.26F
SOUTH HILL*    CLOUDY    42  41  99 CALM      30.32F
LAWRENCEVILLE* CLOUDY    43  42  95 MISG      30.26F
EMPORIA*       CLOUDY    43  41  93 CALM      30.30F
$$

VAZ088>098-170900-
SOUTHEAST VIRGINIA

CITY           SKY/WX    TMP DP  RH WIND       PRES   REMARKS
NORFOLK        CLOUDY    44  39  82 CALM      30.29S
VIRGINIA BEACH CLOUDY    44  39  82 NW3       30.28S
NORFOLK NAVAL  CLOUDY    45  40  82 CALM      30.29F FOG
WEST POINT*    CLOUDY    42  39  89 CALM      30.29S
SALUDA*        CLOUDY    42  39  89 CALM      30.27F
NEWPORT NEWS   CLOUDY    44  39  82 S6        30.28F
LANGLEY AFB    CLOUDY    44  39  82 S3        30.27F
FORT EUSTIS    CLOUDY    43  38  82 CALM      30.25F
WILLIAMSBURG*  CLOUDY    45  41  87 CALM      30.28F
HR EXEC AP*    CLOUDY    45  37  76 CALM      30.27F
FRANKLIN*      CLOUDY    44  41  88 CALM      30.30S
US460-WAKEFLD  CLOUDY    43  41  93 CALM      30.28S
$$

VAZ020-022-025-037-045-170900-
WEST CENTRAL AND SOUTHWEST VIRGINIA

CITY           SKY/WX    TMP DP  RH WIND       PRES   REMARKS
STAUNTON*      CLOUDY    41  39  95 CALM      30.22S
WAYNESBORO*    CLOUDY    40  39  96 CALM      30.20S
HOT SPRINGS VA CLOUDY    52  43  71 SW8       30.17F
LYNCHBURG      CLOUDY    40  37  89 SW3       30.25S
DANVILLE       CLOUDY    45  41  86 S3        30.25F
SOUTH BOSTON*  CLOUDY    40  38  95 CALM      30.26F
MARTINSVILLE   MOCLDY    47  44  89 SW3       30.27S
ROANOKE        FOG       41  41 100 CALM      30.24F VSB 1/4
BLACKSBURG     FOG       43  43 100 CALM      30.24F VSB 1/2
DUBLIN*        FOG       44  44 100 CALM      30.23F VSB 1/4
MARION*        FOG       46  44  95 NE5       30.23S VSB 1/4
HILLSVILLE*    CLOUDY    47  47 100 CALM      30.20F
RICHLANDS*     CLOUDY   N/A N/A N/A S5        30.16F
WISE*          MOCLDY    55  46  71 S10       30.16S
ABINGDON*      CLOUDY    51  49  93 E8        30.17F
$$

MDZ021>025-VAZ099-100-170900-
SOUTHERN MARYLAND AND THE DELMARVA PENINSULA

CITY           SKY/WX    TMP DP  RH WIND       PRES   REMARKS
PATUXENT RIVER CLOUDY    41  36  82 S6        30.27S
BAY BRIDGE APT LGT RAIN  39  37  93 S3        30.26F
LEONARDTOWN    CLOUDY    41  34  75 CALM      30.26F
DOVER          DRIZZLE   38  38 100 CALM      30.26R
GEORGETOWN     CLOUDY    41  35  79 SW5       30.27F
EASTON         CLOUDY    41  37  86 CALM      30.31R
CAMBRIDGE      CLOUDY    39  34  81 S3        30.26F
SALISBURY      CLOUDY    40  36  86 S3        30.27F
OCEAN CITY     CLOUDY    41  38  89 CALM      30.27F
WALLOPS ISLAND CLOUDY    42  38  85 CALM      30.29S
ACCOMACK*      CLOUDY    43  39  85 CALM      30.29R
$$

NCZ012>017-030>032-170900-
NORTH CENTRAL AND EASTERN NORTH CAROLINA

CITY           SKY/WX    TMP DP  RH WIND       PRES   REMARKS
ROANOKE RAPIDS CLOUDY    45  43  93 CALM      30.28F
RALEIGH        CLOUDY    48  43  82 W3        30.27S
ELIZABETH CITY CLOUDY    42  41  96 CALM      30.29S
AHOSKIE*         N/A     43  40  91 CALM      30.30R
EDENTON*       CLOUDY    46  42  88 CALM      30.31R
CURRITUCK*     MOCLDY    40  40 100 CALM      30.30R
KILL DEVIL HLS NOT AVBL
MANTEO         CLOUDY    42  41  97 CALM      30.28F
CAPE HATTERAS  CLOUDY    48  43  82 VRB5      30.28S
TARBORO*       NOT AVBL
GOLDSBORO      CLOUDY    48  48  99 CALM      30.26F
WASHINGTON     MOCLDY    45  39  81 CALM      30.29S
GREENVILLE     CLOUDY    46  43  87 CALM      30.29F
NEW BERN       CLOUDY    44  42  93 CALM      30.29F
WILMINGTON     MOCLDY    47  46  97 E3        30.27S
$$

VAZ048-170900-
ELSEWHERE

CITY           SKY/WX    TMP DP  RH WIND       PRES   REMARKS
HARRISBURG PA  CLOUDY    36  30  79 CALM      30.25R
BALTIMORE      CLOUDY    38  37  97 S3        30.25F
ANNAPOLIS      LGT RAIN  41  37  86 CALM      30.26S
ANDREWS AFB    CLOUDY    39  37  93 S5        30.23F
PHILADELPHIA   CLOUDY    38  30  73 CALM      30.29S
HENDERSON NC   MOCLDY    42  38  87 CALM      30.26F
GREENSBORO     CLOUDY    47  46  97 W5        30.25F FOG
ROCKY MOUNT    CLOUDY    47  44  90 CALM      30.28F
$$

VAZ100-170900-
MARINE

STATION/POSITION TIME  TEMP    WIND        PRES    WAVE   SWELL
                       AIR SEA DIR/SP/G            HT/PER HT/PER
                 (UTC) (F)     (DEG/KT/KT) (MB)    (FT/S) (FT/S)
CAPE MAY NJ      0742   41 40   CALM  /  1 1024.9R
LEWES DE         0748      41  210/  2/  4 1024.9S
OCEAN-CITY-INLET 0748      42  260/  3/  4 1025.3F
WACHAPREAGUE VA  0742   43 44  260/  2/  3 1025.5R
THOMAS POINT MD  0800   40 38  180/  7/  7   N/A
GOOSES REEF MD   0800   40     170/  8/  8 1025.5    0
COVE POINT MD    0742   40     200/  7/  8 1025.6S
SOLOMONS ISLAND  0748      41  190/  6/  6   N/A
BISHOPS HEAD MD  0742   40 42  150/  5/  6 1025.3F
PINEY POINT MD   0748          130/  4/  4   N/A
POTOMAC MD       0800   41 40  160/  4/  6 1024.0    0
CAMBRIDGE MD     0742   42 38  190/  5/  7 1024.5R
LEWISETTA VA     0742   43 42  190/  4/  5 1024.7F
RAPPAHANNOCK LGT 0748          180/  4/  4 1025.9F
STINGRAY PT      0750   41     190/  6/  6 1025.6F
YORK RVR RNG VA  0742   42     180/  5/  5 1024.8F
YORKTOWN VA      0742   43 42  140/  2/  3 1025.0F
JAMESTOWN VA     0750   43     150/  4/  4   N/A
DOMINION TERM VA 0742   43     170/  2/  2 1025.7S
KIPTOPEKE VA     0748      42  310/  1/  3   N/A
CHES BAY BRIDGE  0736   42 42  250/  3/  3 1025.7R
CAPE HENRY VA    0736   43     240/  3/  3   N/A
WILLOUBY STN VA  0742   43     150/  2/  2 1026.5R
S CRANEY ISL VA  0742   43     160/  1/  2 1025.5R
CAPE HENRY BUOY  0742      47                N/A     2/10
OFFSHORE WE BUOY 0751      49                N/A     2/ 9
64NM E OF VA BCH 0750   54 56  360/  6/  8 1024.8F   2/ 9   2/ 9
DUCK PIER NC     0736   44 44   10/  2/  4 1024.7F
44100 DUCK FRF   0735      46                N/A     2/ 9
44056 DUCK FRF   0730      44                N/A     2/ 8
OREGON INLET NC  0736   44 48  340/  2/  3 1025.2F
HATTERAS NC      0748      52  360/  7/  8 1024.9F
DIAMOND SHLS NC  0750   56 73   10/  8/  8 1024.9F   3/ 9   3/ 9
CAPE LOOKOUT NC  0700   49      20/  4/  4 1024.9F
$$



USA.gov is the U.S. government's official web portal to all federal, state and local government web resources and services.